Location: Cuiabá
(15.6014°S, 56.0979°W)
Time: 11:20:52
(UTC-04:00)

N. Korean satellite - Visible Passes

Search period start: 27 November 2022 00:00
Search period end: 07 December 2022 00:00
Orbit: 422 x 454 km, 97.3° (Epoch: 26 November)

Date Brightness Start Highest point End Pass type
(mag) Time Alt. Az. Time Alt. Az. Time Alt. Az.
27 Nov 7.4 04:19:13 10° NNE 04:22:28 51° ESE 04:25:44 10° S visible
28 Nov 9.9 03:42:49 10° E 03:44:01 12° ESE 03:45:14 10° SE visible
29 Nov 6.3 04:34:18 10° N 04:37:38 81° W 04:40:58 10° SSW visible
30 Nov 9.3 03:56:34 10° NE 03:59:04 20° ESE 04:01:33 10° SSE visible
02 Dec 8.2 04:10:55 10° NE 04:13:58 35° ESE 04:17:01 10° S visible
04 Dec 6.8 04:25:29 10° NNE 04:28:45 67° ESE 04:32:02 10° S visible
05 Dec 9.7 03:48:15 10° ENE 03:50:03 14° ESE 03:51:51 10° SE visible
06 Dec 6.3 04:40:10 10° N 04:43:25 62° W 04:46:41 10° SSW visible
